User: anonymous   Login
Location: Unspecified
(0.0000°N, 0.0000°E)
Time: 10:37:14
(UTC+00:00)
Language:

NOSS 7 (D) - Orbit

View from above orbital plane
View from above orbital plane
View from above satellite
View from above satellite

Ground track
Ground track

The orbit data is extracted from the following two-line orbital elements,

1 16623U 86014D   18143.08608727 0.00001000  00000-0  11069-3 0    06
2 16623  63.3025  24.3190 0903586  62.4831 297.5169 13.45484429    06
Epoch (UTC): 23 May 2018 02:03:57
Eccentricity: 0.0903586
inclination: 63.3025°
perigee height: 414 km
apogee height: 1763 km
right ascension of ascending node: 24.3190°
argument of perigee: 62.4831°
revolutions per day: 13.45484429
mean anomaly at epoch: 297.5169°
orbit number at epoch: 0

The dashed part of the orbit path shows where the satellite is in the earth's shadow,  

DLR